SIA208 YMML-WSSS

Flight info

Callsign SIA208
Flight time N/A
Altitude 36000
Route KEPPA Q168 WR T29 VIRUV/N0491F380 T29 CIN A576 ATMAP M635 BLI/N0484F400 M635 SURGA T23 UGEBO UGEBO1A
Aircraft A359/H-SDE2E3GHIJ3J4J5LM1ORWXY/LB1D1

Departure

Time 2026-04-30 09:28
Airport Melbourne Airport (YMML)

Arrival

Time N/A
Airport Singapore Changi Airport (WSSS)
Time Latitude Longitude Altitude Speed Heading
2026-04-30 09:09 -37.66958 144.84359 403 ft 0 kts 43°
2026-04-30 09:20 -37.66959 144.84357 403 ft 2 kts 43°
2026-04-30 09:20 -37.66972 144.84342 372 ft 3 kts 43°
2026-04-30 09:20 -37.66985 144.84326 396 ft 3 kts 52°
2026-04-30 09:20 -37.66995 144.84305 396 ft 3 kts 71°
2026-04-30 09:21 -37.66999 144.84282 397 ft 3 kts 91°
2026-04-30 09:21 -37.66998 144.84266 397 ft 3 kts 103°
2026-04-30 09:21 -37.66992 144.84245 392 ft 3 kts 122°
2026-04-30 09:21 -37.66976 144.84222 398 ft 3 kts 147°
2026-04-30 09:22 -37.66974 144.84220 398 ft 0 kts 150°
2026-04-30 09:22 -37.66974 144.84221 398 ft 0 kts 150°
2026-04-30 09:22 -37.67036 144.84241 397 ft 14 kts 172°
2026-04-30 09:23 -37.67165 144.84264 393 ft 23 kts 172°
2026-04-30 09:23 -37.67285 144.84285 389 ft 29 kts 172°
2026-04-30 09:23 -37.67400 144.84306 385 ft 0 kts 172°
2026-04-30 09:24 -37.67410 144.84308 385 ft 6 kts 172°
2026-04-30 09:24 -37.67487 144.84321 382 ft 16 kts 172°
2026-04-30 09:24 -37.67632 144.84347 377 ft 25 kts 172°
2026-04-30 09:24 -37.67836 144.84383 373 ft 33 kts 172°
2026-04-30 09:25 -37.68091 144.84430 365 ft 41 kts 172°
2026-04-30 09:25 -37.68376 144.84447 362 ft 42 kts 207°
2026-04-30 09:25 -37.68507 144.84328 355 ft 0 kts 223°
2026-04-30 09:26 -37.68507 144.84327 355 ft 1 kts 223°
2026-04-30 09:26 -37.68531 144.84297 359 ft 9 kts 226°
2026-04-30 09:26 -37.68562 144.84219 356 ft 9 kts 270°
2026-04-30 09:27 -37.68527 144.84123 357 ft 16 kts 310°
2026-04-30 09:27 -37.68415 144.84067 358 ft 20 kts 348°
2026-04-30 09:27 -37.68126 144.84014 364 ft 70 kts 351°
2026-04-30 09:27 -37.67468 144.83892 384 ft 120 kts 352°
2026-04-30 09:28 -37.66490 144.83707 414 ft 162 kts 352°
2026-04-30 09:28 -37.65340 144.83486 906 ft 163 kts 353°
2026-04-30 09:28 -37.64257 144.83286 1549 ft 155 kts 353°
2026-04-30 09:28 -37.63145 144.83081 1851 ft 169 kts 353°
2026-04-30 09:29 -37.61918 144.82857 2089 ft 185 kts 353°
2026-04-30 09:29 -37.60624 144.82619 2327 ft 195 kts 353°
2026-04-30 09:29 -37.59273 144.82369 2658 ft 198 kts 352°
2026-04-30 09:29 -37.57906 144.82113 3060 ft 199 kts 352°
2026-04-30 09:30 -37.56544 144.81750 3362 ft 205 kts 343°
2026-04-30 09:30 -37.55232 144.80818 3518 ft 230 kts 324°
2026-04-30 09:30 -37.53999 144.79458 3991 ft 239 kts 321°
2026-04-30 09:30 -37.52757 144.78031 4631 ft 242 kts 320°
2026-04-30 09:31 -37.51497 144.76602 5277 ft 246 kts 320°
2026-04-30 09:31 -37.50216 144.75160 5962 ft 248 kts 320°
2026-04-30 09:31 -37.48929 144.73720 6626 ft 252 kts 320°
2026-04-30 09:31 -37.47608 144.72246 7268 ft 256 kts 319°
2026-04-30 09:32 -37.46267 144.70752 7958 ft 258 kts 319°
2026-04-30 09:32 -37.44919 144.69251 8673 ft 260 kts 319°
2026-04-30 09:32 -37.43552 144.67731 9380 ft 263 kts 319°
2026-04-30 09:32 -37.42175 144.66202 10087 ft 266 kts 319°
2026-04-30 09:33 -37.40756 144.64627 10481 ft 280 kts 319°
2026-04-30 09:33 -37.39248 144.62954 10741 ft 298 kts 319°
2026-04-30 09:33 -37.37645 144.61177 11003 ft 315 kts 319°
2026-04-30 09:33 -37.35963 144.59313 11271 ft 330 kts 319°
2026-04-30 09:34 -37.34200 144.57360 11633 ft 342 kts 319°
2026-04-30 09:34 -37.32395 144.55364 12147 ft 348 kts 319°
2026-04-30 09:34 -37.30564 144.53339 12708 ft 353 kts 319°
2026-04-30 09:34 -37.28709 144.51289 13268 ft 357 kts 319°
2026-04-30 09:35 -37.26833 144.49217 13830 ft 361 kts 319°
2026-04-30 09:35 -37.24937 144.47125 14351 ft 365 kts 319°
2026-04-30 09:35 -37.23021 144.45013 14896 ft 367 kts 319°
2026-04-30 09:35 -37.21099 144.42895 15472 ft 369 kts 319°
2026-04-30 09:36 -37.19166 144.40768 16048 ft 370 kts 319°
2026-04-30 09:36 -37.17224 144.38631 16641 ft 373 kts 319°
2026-04-30 09:36 -37.15266 144.36477 17226 ft 375 kts 319°
2026-04-30 09:36 -37.13323 144.34342 17787 ft 378 kts 318°
2026-04-30 09:37 -37.11339 144.32163 18359 ft 380 kts 318°
2026-04-30 09:37 -37.09344 144.29976 18869 ft 383 kts 318°
2026-04-30 09:37 -37.07333 144.27770 19350 ft 386 kts 318°
2026-04-30 09:37 -37.05301 144.25543 19825 ft 389 kts 318°
2026-04-30 09:38 -37.03255 144.23303 20315 ft 392 kts 318°
2026-04-30 09:38 -37.01193 144.21048 20799 ft 394 kts 318°
2026-04-30 09:38 -36.99118 144.18779 21287 ft 398 kts 318°
2026-04-30 09:38 -36.97023 144.16491 21771 ft 401 kts 318°
2026-04-30 09:39 -36.94907 144.14181 22258 ft 404 kts 319°
2026-04-30 09:39 -36.92781 144.11863 22741 ft 407 kts 319°
2026-04-30 09:39 -36.90666 144.09558 23220 ft 410 kts 319°
2026-04-30 09:39 -36.88505 144.07204 23695 ft 414 kts 319°
2026-04-30 09:40 -36.86321 144.04828 24116 ft 417 kts 319°
2026-04-30 09:40 -36.84130 144.02446 24575 ft 418 kts 319°
2026-04-30 09:40 -36.81930 144.00056 25012 ft 420 kts 319°
2026-04-30 09:40 -36.79761 143.97602 25433 ft 422 kts 315°
2026-04-30 09:41 -36.77729 143.94944 25869 ft 423 kts 312°
2026-04-30 09:41 -36.75762 143.92192 26307 ft 425 kts 311°
2026-04-30 09:41 -36.73825 143.89396 26720 ft 427 kts 311°
2026-04-30 09:41 -36.71889 143.86573 27127 ft 429 kts 311°
2026-04-30 09:42 -36.69973 143.83786 27547 ft 430 kts 311°
2026-04-30 09:42 -36.68013 143.80950 27955 ft 432 kts 311°
2026-04-30 09:42 -36.66042 143.78118 28367 ft 434 kts 311°
2026-04-30 09:42 -36.64054 143.75276 28759 ft 436 kts 311°
2026-04-30 09:43 -36.62057 143.72429 29162 ft 437 kts 311°
2026-04-30 09:43 -36.60046 143.69569 29547 ft 439 kts 311°
2026-04-30 09:43 -36.58027 143.66701 29910 ft 441 kts 311°
2026-04-30 09:43 -36.55994 143.63815 30282 ft 443 kts 311°
2026-04-30 09:44 -36.53962 143.60932 30586 ft 445 kts 311°
2026-04-30 09:44 -36.51910 143.58024 30853 ft 447 kts 311°
2026-04-30 09:44 -36.49852 143.55108 31109 ft 449 kts 311°
2026-04-30 09:44 -36.47812 143.52220 31371 ft 451 kts 312°
2026-04-30 09:45 -36.45733 143.49280 31632 ft 452 kts 312°
2026-04-30 09:45 -36.43651 143.46338 31963 ft 452 kts 312°
2026-04-30 09:45 -36.41581 143.43415 32360 ft 450 kts 312°
2026-04-30 09:45 -36.39512 143.40496 32722 ft 449 kts 312°
2026-04-30 09:46 -36.37447 143.37586 33056 ft 448 kts 312°
2026-04-30 09:46 -36.35387 143.34684 33397 ft 447 kts 312°
2026-04-30 09:46 -36.33331 143.31792 33748 ft 446 kts 313°
2026-04-30 09:46 -36.31299 143.28936 34061 ft 445 kts 313°
2026-04-30 09:47 -36.29255 143.26065 34370 ft 444 kts 313°
2026-04-30 09:47 -36.27203 143.23185 34603 ft 444 kts 312°
2026-04-30 09:47 -36.25145 143.20300 34782 ft 446 kts 312°
2026-04-30 09:47 -36.23093 143.17425 34969 ft 446 kts 312°
2026-04-30 09:48 -36.21029 143.14536 35159 ft 447 kts 312°
2026-04-30 09:48 -36.18969 143.11656 35350 ft 448 kts 312°
2026-04-30 09:48 -36.16904 143.08770 35534 ft 448 kts 312°
2026-04-30 09:48 -36.14835 143.05881 35705 ft 449 kts 311°
2026-04-30 09:49 -36.12757 143.02983 35879 ft 449 kts 311°
2026-04-30 09:49 -36.10705 143.00122 36046 ft 450 kts 311°
2026-04-30 09:49 -36.08623 142.97223 36215 ft 451 kts 311°
2026-04-30 09:49 -36.06530 142.94312 36262 ft 454 kts 311°
2026-04-30 09:50 -36.02307 142.88442 36258 ft 458 kts 311°
2026-04-30 09:50 -35.98069 142.82564 36259 ft 458 kts 311°
2026-04-30 09:51 -35.93829 142.76693 36261 ft 458 kts 311°
2026-04-30 09:51 -35.89584 142.70826 36258 ft 459 kts 311°
2026-04-30 09:52 -35.85354 142.64989 36258 ft 459 kts 311°
2026-04-30 09:52 -35.81094 142.59124 36257 ft 460 kts 311°
2026-04-30 09:53 -35.76820 142.53248 36257 ft 460 kts 311°
2026-04-30 09:53 -35.72536 142.47373 36251 ft 461 kts 311°
2026-04-30 09:54 -35.68247 142.41494 36247 ft 461 kts 311°
2026-04-30 09:54 -35.63978 142.35653 36253 ft 462 kts 311°
2026-04-30 09:55 -35.59670 142.29771 36253 ft 463 kts 311°
2026-04-30 09:55 -35.55349 142.23883 36250 ft 463 kts 311°
2026-04-30 09:56 -35.48579 142.14676 36250 ft 464 kts 311°
2026-04-30 09:56 -35.31274 141.91258 36246 ft 467 kts 311°
2026-04-30 09:57 -35.13717 141.67662 36244 ft 469 kts 311°
2026-04-30 09:57 -34.96073 141.44121 36234 ft 471 kts 310°
2026-04-30 09:58 -34.78309 141.20568 36230 ft 472 kts 310°
2026-04-30 09:58 -34.60466 140.97082 36224 ft 473 kts 310°
2026-04-30 09:59 -34.24640 140.50402 36213 ft 474 kts 310°
2026-04-30 10:00 -33.97582 140.15557 36204 ft 473 kts 311°
2026-04-30 10:01 -33.70485 139.81010 36196 ft 472 kts 311°
2026-04-30 10:02 -33.43514 139.46959 36213 ft 470 kts 311°
2026-04-30 10:02 -33.25125 139.24622 36217 ft 470 kts 312°
2026-04-30 10:03 -33.06619 139.02538 36224 ft 469 kts 312°
2026-04-30 10:03 -32.88105 138.80576 36221 ft 469 kts 312°
2026-04-30 10:04 -32.69569 138.58725 36218 ft 469 kts 312°
2026-04-30 10:04 -32.51025 138.37001 36214 ft 468 kts 312°
2026-04-30 10:05 -32.32533 138.15468 36200 ft 467 kts 312°
2026-04-30 10:05 -32.13973 137.93986 36189 ft 466 kts 312°
2026-04-30 10:06 -31.95398 137.72615 36175 ft 466 kts 313°
2026-04-30 10:06 -31.76829 137.51380 36169 ft 465 kts 312°
2026-04-30 10:07 -31.61384 137.33812 36166 ft 464 kts 312°
2026-04-30 10:07 -31.42797 137.12783 36160 ft 464 kts 312°
2026-04-30 10:08 -31.21173 136.88473 36157 ft 463 kts 312°
2026-04-30 10:08 -31.02252 136.68017 36146 ft 464 kts 314°
2026-04-30 10:09 -30.86314 136.51252 36149 ft 463 kts 314°
2026-04-30 10:09 -30.71016 136.35211 36147 ft 462 kts 314°
2026-04-30 10:10 -30.66229 136.30206 36139 ft 462 kts 314°
2026-04-30 10:10 -30.61476 136.25244 36140 ft 462 kts 314°
2026-04-30 10:11 -30.56690 136.20255 36144 ft 462 kts 314°
2026-04-30 10:11 -30.51907 136.15274 36137 ft 461 kts 314°
2026-04-30 10:12 -30.47123 136.10299 36133 ft 461 kts 314°
2026-04-30 10:12 -30.42339 136.05333 36131 ft 461 kts 314°
2026-04-30 10:13 -30.37593 136.00412 36133 ft 461 kts 314°
2026-04-30 10:13 -30.32814 135.95465 36131 ft 460 kts 314°
2026-04-30 10:14 -30.28036 135.90524 36131 ft 460 kts 314°
2026-04-30 10:14 -30.20895 135.83152 36132 ft 460 kts 314°
2026-04-30 10:15 -30.16117 135.78229 36134 ft 460 kts 314°
2026-04-30 10:15 -30.11342 135.73315 36132 ft 459 kts 314°
2026-04-30 10:16 -30.06560 135.68400 36131 ft 459 kts 314°
2026-04-30 10:17 -29.99426 135.61080 36131 ft 459 kts 314°
2026-04-30 10:17 -29.92259 135.53742 36130 ft 459 kts 314°
2026-04-30 10:18 -29.87506 135.48884 36130 ft 458 kts 314°
2026-04-30 10:19 -29.80339 135.41570 36130 ft 458 kts 314°
2026-04-30 10:19 -29.75591 135.36732 36130 ft 458 kts 314°
2026-04-30 10:20 -29.70814 135.31871 36126 ft 458 kts 314°
2026-04-30 10:20 -29.63680 135.24625 36124 ft 458 kts 314°
2026-04-30 10:21 -29.58908 135.19784 36123 ft 458 kts 314°
2026-04-30 10:21 -29.54128 135.14943 36121 ft 458 kts 314°
2026-04-30 10:22 -29.49341 135.10102 36122 ft 458 kts 314°
2026-04-30 10:22 -29.44569 135.05282 36121 ft 458 kts 314°
2026-04-30 10:23 -29.39813 135.00484 36120 ft 458 kts 314°
2026-04-30 10:23 -29.35018 134.95653 36123 ft 458 kts 314°
2026-04-30 10:24 -29.30226 134.90831 36116 ft 458 kts 314°
2026-04-30 10:24 -29.25433 134.86014 36118 ft 458 kts 314°
2026-04-30 10:25 -29.20638 134.81203 36116 ft 458 kts 314°
2026-04-30 10:25 -29.15879 134.76433 36118 ft 458 kts 314°
2026-04-30 10:26 -29.11082 134.71631 36115 ft 457 kts 314°
2026-04-30 10:26 -29.06285 134.66836 36113 ft 457 kts 314°
2026-04-30 10:27 -29.01558 134.62116 36112 ft 457 kts 314°
2026-04-30 10:27 -28.96713 134.57284 36109 ft 457 kts 314°
2026-04-30 10:28 -28.91944 134.52539 36110 ft 457 kts 314°
2026-04-30 10:28 -28.87144 134.47773 36111 ft 457 kts 314°
2026-04-30 10:29 -28.82341 134.43012 36107 ft 457 kts 314°
2026-04-30 10:29 -28.77532 134.38249 36112 ft 457 kts 314°
2026-04-30 10:30 -28.72726 134.33496 36108 ft 457 kts 314°
2026-04-30 10:30 -28.67943 134.28771 36109 ft 457 kts 314°
2026-04-30 10:31 -28.63128 134.24021 36107 ft 458 kts 314°
2026-04-30 10:31 -28.58313 134.19277 36109 ft 458 kts 314°
2026-04-30 10:32 -28.53492 134.14532 36103 ft 458 kts 314°
2026-04-30 10:32 -28.48664 134.09787 36104 ft 458 kts 314°
2026-04-30 10:33 -28.43867 134.05078 36104 ft 458 kts 314°
2026-04-30 10:33 -28.39039 134.00345 36102 ft 458 kts 314°
2026-04-30 10:34 -28.34212 133.95618 36102 ft 458 kts 314°
2026-04-30 10:34 -28.29386 133.90899 36100 ft 457 kts 314°
2026-04-30 10:35 -28.24586 133.86211 36100 ft 457 kts 314°
2026-04-30 10:35 -28.19755 133.81498 36101 ft 457 kts 314°
2026-04-30 10:36 -28.14928 133.76795 36096 ft 457 kts 314°
2026-04-30 10:36 -28.10104 133.72101 36097 ft 457 kts 314°
2026-04-30 10:37 -28.05275 133.67407 36094 ft 457 kts 314°
2026-04-30 10:37 -28.00444 133.62718 36093 ft 457 kts 314°
2026-04-30 10:38 -27.95618 133.58039 36093 ft 457 kts 314°
2026-04-30 10:38 -27.90784 133.53358 36096 ft 457 kts 314°
2026-04-30 10:39 -27.85957 133.48689 36095 ft 457 kts 314°
2026-04-30 10:39 -27.81152 133.44048 36097 ft 457 kts 314°
2026-04-30 10:40 -27.76316 133.39382 36094 ft 457 kts 314°
2026-04-30 10:40 -27.71486 133.34727 36096 ft 456 kts 314°
2026-04-30 10:41 -27.66684 133.30106 36096 ft 456 kts 314°
2026-04-30 10:41 -27.61855 133.25463 36097 ft 456 kts 314°
2026-04-30 10:42 -27.57024 133.20824 36097 ft 455 kts 314°
2026-04-30 10:42 -27.52194 133.16192 36095 ft 456 kts 314°
2026-04-30 10:43 -27.47361 133.11563 36095 ft 456 kts 314°
2026-04-30 10:43 -27.42528 133.06938 36094 ft 456 kts 314°
2026-04-30 10:44 -27.37696 133.02321 36097 ft 456 kts 314°
2026-04-30 10:44 -27.32858 132.97702 36096 ft 456 kts 314°
2026-04-30 10:45 -27.28053 132.93122 36096 ft 456 kts 314°
2026-04-30 10:45 -27.23202 132.88503 36106 ft 456 kts 314°
2026-04-30 10:46 -27.18358 132.83896 36112 ft 456 kts 314°
2026-04-30 10:46 -27.13535 132.79315 36102 ft 456 kts 314°
2026-04-30 10:47 -27.08681 132.74709 36105 ft 456 kts 314°
2026-04-30 10:47 -27.03831 132.70112 36098 ft 457 kts 314°
2026-04-30 10:48 -26.98974 132.65515 36106 ft 456 kts 314°
2026-04-30 10:48 -26.94099 132.60905 36106 ft 456 kts 314°
2026-04-30 10:49 -26.89270 132.56351 36110 ft 457 kts 314°
2026-04-30 10:49 -26.84404 132.51769 36109 ft 457 kts 314°
2026-04-30 10:50 -26.79539 132.47193 36111 ft 457 kts 314°
2026-04-30 10:50 -26.74661 132.42611 36109 ft 457 kts 314°
2026-04-30 10:51 -26.69816 132.38064 36112 ft 457 kts 314°
2026-04-30 10:51 -26.64929 132.33484 36113 ft 458 kts 314°
2026-04-30 10:52 -26.60033 132.28899 36116 ft 458 kts 314°
2026-04-30 10:52 -26.55177 132.24358 36117 ft 458 kts 314°
2026-04-30 10:53 -26.50287 132.19791 36117 ft 458 kts 314°
2026-04-30 10:53 -26.45382 132.15215 36122 ft 458 kts 314°
2026-04-30 10:54 -26.40489 132.10655 36119 ft 459 kts 314°
2026-04-30 10:54 -26.35610 132.06112 36124 ft 459 kts 314°
2026-04-30 10:55 -26.33159 132.03834 36020 ft 458 kts 313°
2026-04-30 10:55 -26.30707 132.01559 36117 ft 458 kts 313°
2026-04-30 10:55 -26.25820 131.97020 36120 ft 456 kts 312°
2026-04-30 10:56 -26.20943 131.92491 36123 ft 456 kts 313°
2026-04-30 10:56 -26.16062 131.87968 36124 ft 456 kts 313°
2026-04-30 10:57 -26.11216 131.83482 36128 ft 455 kts 313°
2026-04-30 10:57 -26.06342 131.78974 36124 ft 456 kts 313°
2026-04-30 10:58 -26.01468 131.74473 36124 ft 456 kts 313°
2026-04-30 10:58 -25.97380 131.70701 36123 ft 456 kts 313°
2026-04-30 10:59 -25.92523 131.66224 36116 ft 456 kts 312°
2026-04-30 10:59 -25.87640 131.61729 36115 ft 456 kts 312°
2026-04-30 11:00 -25.82749 131.57230 36113 ft 456 kts 313°
2026-04-30 11:00 -25.77860 131.52739 36107 ft 456 kts 312°
2026-04-30 11:01 -25.72966 131.48248 36108 ft 456 kts 313°
2026-04-30 11:01 -25.68064 131.43755 36115 ft 457 kts 313°
2026-04-30 11:02 -25.63192 131.39294 36105 ft 457 kts 313°
2026-04-30 11:02 -25.58283 131.34804 36102 ft 457 kts 313°
2026-04-30 11:03 -25.53371 131.30317 36104 ft 457 kts 313°
2026-04-30 11:04 -25.46023 131.23613 36098 ft 458 kts 313°
2026-04-30 11:04 -25.41108 131.19135 36101 ft 458 kts 313°
2026-04-30 11:05 -25.36186 131.14656 36099 ft 458 kts 313°
2026-04-30 11:05 -25.31253 131.10171 36099 ft 458 kts 313°
2026-04-30 11:06 -25.26346 131.05715 36095 ft 458 kts 313°
2026-04-30 11:06 -25.21414 131.01242 36097 ft 459 kts 313°
2026-04-30 11:07 -25.16479 130.96770 36093 ft 459 kts 313°
2026-04-30 11:07 -25.11687 130.92151 36090 ft 456 kts 310°
2026-04-30 11:08 -25.07002 130.87441 36090 ft 456 kts 310°
2026-04-30 11:08 -25.02316 130.82770 36089 ft 456 kts 311°
2026-04-30 11:09 -24.97578 130.78100 36091 ft 457 kts 311°
2026-04-30 11:09 -24.92820 130.73434 36082 ft 457 kts 311°
2026-04-30 11:10 -24.88068 130.68779 36083 ft 457 kts 311°
2026-04-30 11:10 -24.83312 130.64124 36094 ft 457 kts 311°
2026-04-30 11:11 -24.78557 130.59473 36083 ft 457 kts 311°
2026-04-30 11:11 -24.73796 130.54821 36087 ft 457 kts 311°
2026-04-30 11:12 -24.69032 130.50170 36075 ft 457 kts 311°
2026-04-30 11:12 -24.64298 130.45554 36087 ft 457 kts 311°
2026-04-30 11:13 -24.59533 130.40913 36080 ft 457 kts 311°
2026-04-30 11:13 -24.54767 130.36276 36078 ft 457 kts 311°
2026-04-30 11:14 -24.50029 130.31671 36075 ft 457 kts 311°
2026-04-30 11:14 -24.45260 130.27041 36080 ft 457 kts 311°
2026-04-30 11:15 -24.40499 130.22423 36081 ft 457 kts 311°
2026-04-30 11:15 -24.35731 130.17802 36076 ft 457 kts 311°
2026-04-30 11:16 -24.30960 130.13183 36075 ft 457 kts 311°
2026-04-30 11:16 -24.26221 130.08600 36076 ft 457 kts 311°
2026-04-30 11:17 -24.21446 130.03989 36078 ft 457 kts 311°
2026-04-30 11:17 -24.16664 129.99374 36073 ft 458 kts 311°
2026-04-30 11:18 -24.11875 129.94758 36078 ft 458 kts 312°
2026-04-30 11:18 -24.04682 129.87834 36075 ft 459 kts 312°
2026-04-30 11:19 -23.99875 129.83212 36076 ft 460 kts 312°
2026-04-30 11:19 -23.95098 129.78625 36074 ft 460 kts 312°
2026-04-30 11:20 -23.90287 129.74010 36075 ft 460 kts 312°
2026-04-30 11:20 -23.85468 129.69390 36073 ft 460 kts 312°
2026-04-30 11:21 -23.80643 129.64771 36072 ft 461 kts 312°
2026-04-30 11:21 -23.75812 129.60150 36073 ft 461 kts 312°
2026-04-30 11:22 -23.70978 129.55531 36072 ft 461 kts 312°
2026-04-30 11:22 -23.66175 129.50949 36076 ft 461 kts 312°
2026-04-30 11:23 -23.61341 129.46339 36070 ft 461 kts 312°
2026-04-30 11:24 -23.54077 129.39421 36069 ft 462 kts 312°
2026-04-30 11:24 -23.49231 129.34813 36064 ft 462 kts 312°
2026-04-30 11:25 -23.41990 129.27934 36055 ft 462 kts 312°
2026-04-30 11:26 -23.32317 129.18762 36066 ft 462 kts 312°
2026-04-30 11:26 -23.27466 129.14169 36065 ft 462 kts 313°
2026-04-30 11:27 -23.22606 129.09572 36060 ft 463 kts 313°
2026-04-30 11:27 -23.17738 129.04972 36061 ft 463 kts 313°
2026-04-30 11:28 -23.10464 128.98108 36062 ft 463 kts 313°
2026-04-30 11:29 -23.05588 128.93513 36058 ft 463 kts 313°
2026-04-30 11:29 -22.98274 128.86628 36056 ft 464 kts 313°
2026-04-30 11:30 -22.90980 128.79774 36056 ft 464 kts 313°
2026-04-30 11:31 -22.86093 128.75186 36055 ft 464 kts 313°
2026-04-30 11:31 -22.81198 128.70595 36061 ft 465 kts 313°
2026-04-30 11:32 -22.76301 128.66009 36051 ft 465 kts 313°
2026-04-30 11:32 -22.71429 128.61450 36056 ft 465 kts 313°
2026-04-30 11:33 -22.64074 128.54576 36052 ft 465 kts 313°
2026-04-30 11:33 -22.59162 128.49990 36055 ft 465 kts 313°
2026-04-30 11:34 -22.54252 128.45410 36056 ft 465 kts 313°
2026-04-30 11:34 -22.49342 128.40835 36056 ft 466 kts 313°
2026-04-30 11:35 -22.44463 128.36294 36055 ft 466 kts 313°
2026-04-30 11:35 -22.39550 128.31726 36054 ft 466 kts 313°
2026-04-30 11:36 -22.34652 128.27175 36055 ft 466 kts 313°
2026-04-30 11:36 -22.29733 128.22609 36056 ft 466 kts 313°
2026-04-30 11:37 -22.24815 128.18050 36055 ft 466 kts 313°
2026-04-30 11:37 -22.19888 128.13485 36054 ft 466 kts 313°
2026-04-30 11:38 -22.14958 128.08923 36052 ft 466 kts 313°
2026-04-30 11:38 -22.10057 128.04391 36056 ft 466 kts 313°
2026-04-30 11:39 -22.05128 127.99838 36057 ft 466 kts 313°
2026-04-30 11:39 -22.00195 127.95286 36055 ft 467 kts 313°
2026-04-30 11:40 -21.95259 127.90736 36055 ft 467 kts 313°
2026-04-30 11:40 -21.90314 127.86181 36052 ft 467 kts 313°
2026-04-30 11:41 -21.85402 127.81661 36053 ft 467 kts 313°
2026-04-30 11:41 -21.80457 127.77115 36053 ft 467 kts 314°
2026-04-30 11:42 -21.75511 127.72572 36050 ft 467 kts 314°
2026-04-30 11:42 -21.70558 127.68028 36054 ft 467 kts 314°
2026-04-30 11:43 -21.65608 127.63490 36050 ft 468 kts 314°
2026-04-30 11:43 -21.60683 127.58979 36051 ft 468 kts 314°
2026-04-30 11:44 -21.55724 127.54442 36049 ft 468 kts 314°
2026-04-30 11:44 -21.50756 127.49900 36047 ft 468 kts 314°
2026-04-30 11:45 -21.45790 127.45364 36049 ft 468 kts 314°
2026-04-30 11:45 -21.40846 127.40853 36047 ft 469 kts 314°
2026-04-30 11:46 -21.36683 127.37058 36046 ft 469 kts 314°
2026-04-30 11:46 -21.30902 127.31792 36042 ft 469 kts 314°
2026-04-30 11:47 -21.26760 127.28023 36042 ft 469 kts 314°
2026-04-30 11:47 -21.21805 127.23517 36041 ft 469 kts 314°
2026-04-30 11:48 -21.16818 127.18986 36042 ft 469 kts 314°
2026-04-30 11:48 -21.11832 127.14461 36042 ft 470 kts 314°
2026-04-30 11:49 -21.06836 127.09931 36038 ft 470 kts 314°
2026-04-30 11:49 -21.01866 127.05428 36036 ft 470 kts 314°
2026-04-30 11:50 -20.96872 127.00908 36039 ft 470 kts 314°
2026-04-30 11:50 -20.91875 126.96388 36038 ft 470 kts 314°
2026-04-30 11:51 -20.86867 126.91864 36036 ft 470 kts 314°
2026-04-30 11:51 -20.81893 126.87375 36037 ft 471 kts 314°
2026-04-30 11:52 -20.76885 126.82859 36029 ft 471 kts 315°
2026-04-30 11:52 -20.71880 126.78347 36034 ft 471 kts 315°
2026-04-30 11:53 -20.66860 126.73829 36031 ft 471 kts 315°
2026-04-30 11:53 -20.61849 126.69322 36031 ft 471 kts 315°
2026-04-30 11:54 -20.56823 126.64806 36035 ft 472 kts 315°
2026-04-30 11:54 -20.51794 126.60290 36025 ft 472 kts 315°
2026-04-30 11:55 -20.46790 126.55803 36029 ft 472 kts 315°
2026-04-30 11:55 -20.41765 126.51298 36028 ft 472 kts 315°
2026-04-30 11:56 -20.36724 126.46784 36028 ft 473 kts 315°
2026-04-30 11:56 -20.31683 126.42274 36029 ft 473 kts 315°
2026-04-30 11:57 -20.26637 126.37764 36024 ft 474 kts 315°
2026-04-30 11:57 -20.21615 126.33277 36024 ft 474 kts 315°
2026-04-30 11:58 -20.16540 126.28749 36022 ft 474 kts 315°
2026-04-30 11:58 -20.11477 126.24236 36017 ft 475 kts 315°
2026-04-30 11:59 -20.06419 126.19713 36016 ft 474 kts 314°
2026-04-30 11:59 -20.01563 126.15037 36017 ft 473 kts 313°
2026-04-30 12:00 -19.96729 126.10269 36018 ft 474 kts 313°
2026-04-30 12:00 -19.91866 126.05528 36014 ft 474 kts 313°
2026-04-30 12:01 -19.87014 126.00843 36016 ft 474 kts 313°
2026-04-30 12:01 -19.82120 125.96132 36022 ft 475 kts 314°
2026-04-30 12:02 -19.77219 125.91418 36015 ft 475 kts 314°
2026-04-30 12:02 -19.72317 125.86705 36014 ft 475 kts 314°
2026-04-30 12:03 -19.64961 125.79640 36010 ft 475 kts 314°
2026-04-30 12:04 -19.60059 125.74937 36012 ft 475 kts 314°
2026-04-30 12:04 -19.55180 125.70259 36011 ft 476 kts 314°
2026-04-30 12:05 -19.50263 125.65549 36009 ft 476 kts 314°
2026-04-30 12:05 -19.45330 125.60828 36010 ft 476 kts 314°
2026-04-30 12:06 -19.40439 125.56151 36005 ft 476 kts 314°
2026-04-30 12:06 -19.35519 125.51451 36004 ft 476 kts 314°
2026-04-30 12:07 -19.30600 125.46755 36005 ft 476 kts 314°
2026-04-30 12:07 -19.25712 125.42092 36001 ft 476 kts 314°
2026-04-30 12:08 -19.20786 125.37398 36001 ft 476 kts 314°
2026-04-30 12:08 -19.15857 125.32705 35999 ft 476 kts 314°
2026-04-30 12:09 -19.10927 125.28014 36000 ft 476 kts 314°
2026-04-30 12:09 -19.05992 125.23323 35998 ft 476 kts 314°
2026-04-30 12:10 -19.01089 125.18665 35999 ft 476 kts 314°
2026-04-30 12:10 -18.96155 125.13983 35995 ft 477 kts 314°
2026-04-30 12:11 -18.91222 125.09305 35994 ft 477 kts 314°
2026-04-30 12:11 -18.86278 125.04621 35991 ft 477 kts 315°
2026-04-30 12:12 -18.81334 124.99941 35986 ft 477 kts 315°
2026-04-30 12:12 -18.76409 124.95284 36001 ft 477 kts 315°
2026-04-30 12:13 -18.71451 124.90598 35985 ft 478 kts 315°
2026-04-30 12:13 -18.66500 124.85922 35979 ft 478 kts 315°
2026-04-30 12:14 -18.61571 124.81271 35976 ft 478 kts 315°
2026-04-30 12:14 -18.56610 124.76593 35990 ft 478 kts 315°
2026-04-30 12:15 -18.51648 124.71918 35983 ft 478 kts 315°
2026-04-30 12:15 -18.46677 124.67239 35983 ft 479 kts 315°
2026-04-30 12:16 -18.41707 124.62564 35981 ft 479 kts 315°
2026-04-30 12:16 -18.36731 124.57888 35976 ft 479 kts 315°
2026-04-30 12:17 -18.29282 124.50895 35983 ft 480 kts 315°
2026-04-30 12:17 -18.24293 124.46216 35981 ft 480 kts 315°
2026-04-30 12:18 -18.19291 124.41528 35981 ft 480 kts 315°
2026-04-30 12:18 -18.14327 124.36880 35980 ft 481 kts 315°
2026-04-30 12:19 -18.09319 124.32195 35981 ft 481 kts 315°
2026-04-30 12:19 -18.04309 124.27511 35980 ft 481 kts 315°
2026-04-30 12:20 -17.99333 124.22863 35977 ft 482 kts 315°
2026-04-30 12:20 -17.94318 124.18182 35982 ft 482 kts 315°
2026-04-30 12:21 -17.89302 124.13503 35982 ft 482 kts 315°
2026-04-30 12:21 -17.84282 124.08826 35981 ft 483 kts 315°
2026-04-30 12:22 -17.79252 124.04141 35978 ft 483 kts 315°
2026-04-30 12:22 -17.74252 123.99489 35974 ft 483 kts 315°
2026-04-30 12:23 -17.69216 123.94807 35971 ft 484 kts 315°
2026-04-30 12:23 -17.64174 123.90123 35966 ft 484 kts 315°
2026-04-30 12:24 -17.59134 123.85445 35965 ft 484 kts 315°
2026-04-30 12:24 -17.54254 123.80639 35966 ft 483 kts 312°
2026-04-30 12:25 -17.49555 123.75619 35967 ft 483 kts 311°
2026-04-30 12:25 -17.44835 123.70600 35974 ft 483 kts 312°
2026-04-30 12:26 -17.40078 123.65624 35978 ft 484 kts 312°
2026-04-30 12:26 -17.35290 123.60651 35986 ft 484 kts 312°
2026-04-30 12:27 -17.30495 123.55678 35989 ft 485 kts 312°
2026-04-30 12:27 -17.25701 123.50706 35990 ft 485 kts 312°
2026-04-30 12:28 -17.20935 123.45766 35991 ft 485 kts 312°
2026-04-30 12:28 -17.16129 123.40788 35988 ft 485 kts 312°
2026-04-30 12:29 -17.11329 123.35819 35998 ft 485 kts 312°
2026-04-30 12:29 -17.06522 123.30847 36000 ft 486 kts 313°
2026-04-30 12:30 -17.01743 123.25909 35998 ft 486 kts 313°
2026-04-30 12:30 -16.96935 123.20942 35999 ft 486 kts 313°
2026-04-30 12:31 -16.92111 123.15965 36000 ft 486 kts 313°
2026-04-30 12:31 -16.87291 123.10995 35999 ft 487 kts 313°
2026-04-30 12:32 -16.82470 123.06028 35997 ft 487 kts 313°
2026-04-30 12:32 -16.77671 123.01087 35999 ft 487 kts 313°
2026-04-30 12:33 -16.72843 122.96121 35997 ft 487 kts 313°
2026-04-30 12:33 -16.68007 122.91149 35996 ft 487 kts 313°
2026-04-30 12:34 -16.63170 122.86180 35995 ft 488 kts 313°
2026-04-30 12:34 -16.58331 122.81213 36002 ft 488 kts 313°
2026-04-30 12:35 -16.54308 122.77086 36000 ft 488 kts 313°
2026-04-30 12:35 -16.48678 122.71315 36001 ft 488 kts 313°
2026-04-30 12:36 -16.43832 122.66352 36002 ft 489 kts 313°
2026-04-30 12:36 -16.39769 122.62193 36002 ft 489 kts 313°
2026-04-30 12:37 -16.34134 122.56430 36002 ft 489 kts 313°
2026-04-30 12:37 -16.30063 122.52270 35997 ft 489 kts 313°
2026-04-30 12:38 -16.25229 122.47333 35998 ft 489 kts 313°
2026-04-30 12:38 -16.20370 122.42374 35998 ft 489 kts 313°
2026-04-30 12:39 -16.15513 122.37421 35998 ft 489 kts 313°
2026-04-30 12:39 -16.10652 122.32467 35999 ft 489 kts 313°
2026-04-30 12:40 -16.05793 122.27519 36001 ft 489 kts 313°
2026-04-30 12:40 -16.00922 122.22563 35999 ft 489 kts 313°
2026-04-30 12:41 -15.96058 122.17617 36002 ft 489 kts 313°
2026-04-30 12:41 -15.91223 122.12704 36004 ft 489 kts 313°
2026-04-30 12:42 -15.86354 122.07760 36006 ft 489 kts 313°
2026-04-30 12:42 -15.81482 122.02816 36002 ft 489 kts 313°
2026-04-30 12:43 -15.76647 121.97914 36004 ft 489 kts 313°
2026-04-30 12:43 -15.71781 121.92983 36000 ft 489 kts 313°
2026-04-30 12:44 -15.66907 121.88048 36005 ft 489 kts 313°
2026-04-30 12:44 -15.62043 121.83127 36004 ft 488 kts 313°
2026-04-30 12:45 -15.57213 121.78243 36004 ft 488 kts 313°
2026-04-30 12:45 -15.52348 121.73327 36004 ft 488 kts 313°
2026-04-30 12:46 -15.47474 121.68406 36002 ft 488 kts 313°
2026-04-30 12:46 -15.42607 121.63495 36000 ft 488 kts 313°
2026-04-30 12:47 -15.37739 121.58587 36001 ft 488 kts 313°
2026-04-30 12:47 -15.32876 121.53686 36003 ft 488 kts 313°
2026-04-30 12:48 -15.28047 121.48824 36000 ft 488 kts 313°
2026-04-30 12:48 -15.23182 121.43929 36002 ft 487 kts 313°
2026-04-30 12:49 -15.18322 121.39042 36004 ft 487 kts 313°
2026-04-30 12:49 -15.13452 121.34147 36004 ft 487 kts 313°
2026-04-30 12:50 -15.08587 121.29262 36004 ft 487 kts 313°
2026-04-30 12:50 -15.03719 121.24376 36003 ft 487 kts 313°
2026-04-30 12:51 -14.98853 121.19497 36003 ft 487 kts 313°
2026-04-30 12:51 -14.94015 121.14648 36004 ft 487 kts 313°
2026-04-30 12:52 -14.89141 121.09767 36004 ft 487 kts 313°
2026-04-30 12:52 -14.84275 121.04897 36005 ft 487 kts 313°
2026-04-30 12:53 -14.79407 121.00027 36004 ft 487 kts 313°
2026-04-30 12:53 -14.74544 120.95167 36000 ft 487 kts 313°
2026-04-30 12:54 -14.69671 120.90299 36002 ft 487 kts 313°
2026-04-30 12:54 -14.64787 120.85423 36001 ft 487 kts 313°
2026-04-30 12:55 -14.59902 120.80550 36002 ft 488 kts 313°
2026-04-30 12:55 -14.55053 120.75717 36005 ft 487 kts 313°
2026-04-30 12:56 -14.50174 120.70856 36001 ft 487 kts 313°
2026-04-30 12:56 -14.45290 120.65992 36000 ft 487 kts 314°
2026-04-30 12:57 -14.40413 120.61140 35999 ft 487 kts 314°
2026-04-30 12:57 -14.35523 120.56278 35998 ft 487 kts 314°
2026-04-30 12:58 -14.30667 120.51452 35998 ft 487 kts 314°
2026-04-30 12:58 -14.25784 120.46602 36000 ft 487 kts 314°
2026-04-30 12:59 -14.20900 120.41755 35995 ft 487 kts 314°
2026-04-30 12:59 -14.16012 120.36907 35996 ft 487 kts 314°
2026-04-30 13:00 -14.11125 120.32063 35993 ft 487 kts 314°
2026-04-30 13:00 -14.06228 120.27212 35993 ft 487 kts 314°
2026-04-30 13:01 -14.01336 120.22368 35995 ft 488 kts 314°
2026-04-30 13:01 -13.96446 120.17530 35996 ft 487 kts 314°
2026-04-30 13:02 -13.91555 120.12694 35993 ft 487 kts 314°
2026-04-30 13:02 -13.86696 120.07892 35993 ft 487 kts 314°
2026-04-30 13:03 -13.81810 120.03068 35992 ft 487 kts 314°
2026-04-30 13:03 -13.76921 119.98243 35993 ft 486 kts 314°
2026-04-30 13:04 -13.72037 119.93425 35992 ft 486 kts 314°
2026-04-30 13:04 -13.67155 119.88613 35990 ft 486 kts 314°
2026-04-30 13:05 -13.62266 119.83797 35993 ft 486 kts 314°
2026-04-30 13:06 -13.54941 119.76586 35994 ft 486 kts 314°
2026-04-30 13:06 -13.50062 119.71786 35994 ft 485 kts 314°
2026-04-30 13:07 -13.45182 119.66988 35990 ft 485 kts 314°
2026-04-30 13:07 -13.40333 119.62225 35987 ft 485 kts 314°
2026-04-30 13:08 -13.35454 119.57433 35990 ft 485 kts 314°
2026-04-30 13:08 -13.30581 119.52651 35987 ft 485 kts 314°
2026-04-30 13:09 -13.25703 119.47867 36001 ft 484 kts 314°
2026-04-30 13:09 -13.20819 119.43080 35982 ft 484 kts 314°
2026-04-30 13:10 -13.15977 119.38336 35983 ft 484 kts 314°
2026-04-30 13:10 -13.11098 119.33559 35981 ft 484 kts 314°
2026-04-30 13:11 -13.06215 119.28782 35996 ft 484 kts 314°
2026-04-30 13:11 -13.01340 119.24014 35995 ft 484 kts 314°
2026-04-30 13:12 -12.96468 119.19252 35991 ft 484 kts 314°
2026-04-30 13:12 -12.91594 119.14492 35976 ft 483 kts 314°
2026-04-30 13:13 -12.84327 119.07398 35993 ft 483 kts 314°
2026-04-30 13:14 -12.77017 119.00269 35991 ft 483 kts 314°
2026-04-30 13:14 -12.69720 118.93157 35970 ft 482 kts 314°
2026-04-30 13:15 -12.62427 118.86057 35962 ft 482 kts 314°
2026-04-30 13:16 -12.57601 118.81361 35980 ft 481 kts 314°
2026-04-30 13:16 -12.52746 118.76640 35980 ft 481 kts 314°
2026-04-30 13:17 -12.45456 118.69556 35979 ft 481 kts 314°
2026-04-30 13:18 -12.38176 118.62486 35979 ft 480 kts 314°
2026-04-30 13:18 -12.30902 118.55428 35978 ft 480 kts 314°
2026-04-30 13:19 -12.26110 118.50782 35976 ft 480 kts 314°
2026-04-30 13:19 -12.21250 118.46072 35978 ft 480 kts 314°
2026-04-30 13:20 -12.16403 118.41378 35978 ft 480 kts 314°
2026-04-30 13:20 -12.11555 118.36685 35975 ft 480 kts 314°
2026-04-30 13:21 -12.06708 118.31995 35973 ft 480 kts 314°
2026-04-30 13:22 -11.99429 118.24957 35975 ft 480 kts 314°
2026-04-30 13:22 -11.92183 118.17957 35974 ft 480 kts 314°
2026-04-30 13:23 -11.84897 118.10922 35974 ft 480 kts 314°
2026-04-30 13:24 -11.75188 118.01558 35970 ft 480 kts 314°
2026-04-30 13:25 -11.66286 117.92980 35972 ft 481 kts 314°
2026-04-30 13:26 -11.54117 117.81268 35966 ft 481 kts 314°
2026-04-30 13:28 -11.41932 117.69555 35967 ft 482 kts 314°
2026-04-30 13:28 -11.34608 117.62521 35965 ft 483 kts 314°
2026-04-30 13:29 -11.24852 117.53160 35969 ft 484 kts 314°
2026-04-30 13:31 -11.12575 117.41394 35968 ft 485 kts 315°
2026-04-30 13:32 -11.00303 117.29645 35966 ft 486 kts 315°
2026-04-30 13:33 -10.90442 117.20216 35963 ft 486 kts 315°
2026-04-30 13:34 -10.83032 117.13136 35963 ft 487 kts 315°
2026-04-30 13:35 -10.73172 117.03723 35966 ft 488 kts 315°
2026-04-30 13:36 -10.63263 116.94272 35963 ft 489 kts 315°
2026-04-30 13:36 -10.55817 116.87177 35964 ft 489 kts 315°
2026-04-30 13:37 -10.48374 116.80089 35963 ft 489 kts 315°
2026-04-30 13:38 -10.40910 116.72986 35962 ft 490 kts 315°
2026-04-30 13:39 -10.30988 116.63551 35964 ft 490 kts 315°
2026-04-30 13:40 -10.23508 116.56445 35963 ft 491 kts 315°
2026-04-30 13:40 -10.18512 116.51700 35960 ft 491 kts 315°
2026-04-30 13:41 -10.13519 116.46960 35959 ft 492 kts 315°
2026-04-30 13:41 -10.08517 116.42214 35961 ft 492 kts 315°
2026-04-30 13:42 -10.03507 116.37464 35959 ft 492 kts 315°
2026-04-30 13:42 -9.96025 116.30371 35957 ft 492 kts 315°
2026-04-30 13:43 -9.91023 116.25632 35958 ft 492 kts 315°
2026-04-30 13:43 -9.86012 116.20888 35958 ft 492 kts 316°
2026-04-30 13:44 -9.81036 116.16179 35958 ft 492 kts 316°
2026-04-30 13:44 -9.76019 116.11433 35954 ft 492 kts 316°
2026-04-30 13:45 -9.68499 116.04324 35956 ft 493 kts 316°
2026-04-30 13:46 -9.63481 115.99579 35955 ft 493 kts 316°
2026-04-30 13:46 -9.58464 115.94842 35954 ft 493 kts 316°
2026-04-30 13:47 -9.53448 115.90106 35958 ft 493 kts 316°
2026-04-30 13:47 -9.48433 115.85372 35957 ft 493 kts 316°
2026-04-30 13:48 -9.43442 115.80663 35954 ft 493 kts 316°
2026-04-30 13:48 -9.38424 115.75931 35954 ft 493 kts 316°
2026-04-30 13:49 -9.33394 115.71190 35954 ft 494 kts 316°
2026-04-30 13:49 -9.28359 115.66447 35955 ft 494 kts 316°
2026-04-30 13:50 -9.23328 115.61707 35959 ft 494 kts 316°
2026-04-30 13:50 -9.15766 115.54587 35955 ft 495 kts 316°
2026-04-30 13:51 -9.10717 115.49836 35959 ft 495 kts 316°
2026-04-30 13:51 -9.05664 115.45083 35954 ft 496 kts 316°
2026-04-30 13:52 -9.00642 115.40363 35951 ft 496 kts 316°
2026-04-30 13:52 -8.95574 115.35601 35945 ft 497 kts 316°
2026-04-30 13:53 -8.90506 115.30840 35941 ft 497 kts 316°
2026-04-30 13:53 -8.85436 115.26079 35938 ft 497 kts 316°
2026-04-30 13:54 -8.80366 115.21319 35938 ft 498 kts 316°
2026-04-30 13:54 -8.75231 115.16599 35939 ft 498 kts 321°
2026-04-30 13:55 -8.69693 115.12386 35939 ft 499 kts 323°
2026-04-30 13:55 -8.64075 115.08266 35940 ft 499 kts 323°
2026-04-30 13:56 -8.58442 115.04161 35950 ft 499 kts 323°
2026-04-30 13:56 -8.52813 115.00053 35958 ft 499 kts 323°
2026-04-30 13:57 -8.47210 114.95958 35967 ft 500 kts 323°
2026-04-30 13:57 -8.46667 114.95560 35972 ft 500 kts 323°
2026-04-30 13:59 -8.41332 114.91659 35973 ft 500 kts 323°
2026-04-30 13:59 -8.35691 114.87536 35973 ft 500 kts 324°
2026-04-30 14:00 -8.30068 114.83427 35972 ft 500 kts 323°
2026-04-30 14:00 -8.21601 114.77245 35966 ft 499 kts 323°
2026-04-30 14:01 -8.15970 114.73134 35966 ft 499 kts 323°
2026-04-30 14:01 -8.10345 114.69031 35963 ft 499 kts 323°
2026-04-30 14:02 -8.04704 114.64917 35958 ft 499 kts 323°
2026-04-30 14:02 -7.99108 114.60835 35959 ft 499 kts 323°
2026-04-30 14:03 -7.93474 114.56729 35958 ft 498 kts 323°
2026-04-30 14:03 -7.87848 114.52630 35956 ft 498 kts 324°
2026-04-30 14:04 -7.82221 114.48531 35954 ft 498 kts 324°
2026-04-30 14:04 -7.76630 114.44459 35953 ft 499 kts 324°
2026-04-30 14:05 -7.70999 114.40361 35952 ft 499 kts 324°
2026-04-30 14:05 -7.65365 114.36261 35946 ft 500 kts 324°
2026-04-30 14:06 -7.56899 114.30104 35941 ft 500 kts 324°
2026-04-30 14:07 -7.48419 114.23939 35935 ft 501 kts 324°
2026-04-30 14:08 -7.39954 114.17788 35934 ft 502 kts 324°
2026-04-30 14:08 -7.31437 114.11603 35929 ft 503 kts 324°
2026-04-30 14:09 -7.25754 114.07477 35931 ft 504 kts 324°
2026-04-30 14:10 -7.17241 114.01300 35931 ft 505 kts 324°
2026-04-30 14:10 -7.11542 113.97165 35931 ft 505 kts 324°
2026-04-30 14:11 -7.05828 113.93022 35930 ft 505 kts 324°
2026-04-30 14:11 -7.00119 113.88884 35930 ft 505 kts 324°
2026-04-30 14:12 -6.94415 113.84756 35935 ft 505 kts 324°
2026-04-30 14:12 -6.88744 113.80650 35933 ft 505 kts 324°
2026-04-30 14:13 -6.83020 113.76508 35932 ft 505 kts 324°
2026-04-30 14:13 -6.77309 113.72378 35934 ft 505 kts 324°
2026-04-30 14:14 -6.71605 113.68253 35932 ft 505 kts 324°
2026-04-30 14:14 -6.65891 113.64123 35935 ft 505 kts 324°
2026-04-30 14:15 -6.60215 113.60021 35931 ft 505 kts 324°
2026-04-30 14:15 -6.54502 113.55894 35932 ft 505 kts 324°
2026-04-30 14:16 -6.49757 113.52467 35931 ft 505 kts 324°
2026-04-30 14:16 -6.44036 113.48336 35934 ft 506 kts 324°
2026-04-30 14:17 -6.38315 113.44206 35934 ft 506 kts 324°
2026-04-30 14:17 -6.32593 113.40078 35935 ft 507 kts 324°
2026-04-30 14:18 -6.26899 113.35899 35935 ft 507 kts 321°
2026-04-30 14:18 -6.19834 113.27972 35941 ft 508 kts 308°
2026-04-30 14:19 -6.13401 113.19535 35941 ft 508 kts 307°
2026-04-30 14:20 -6.09103 113.13894 35943 ft 508 kts 307°
2026-04-30 14:20 -6.02619 113.05448 35946 ft 508 kts 307°
2026-04-30 14:21 -5.98318 112.99856 35947 ft 508 kts 307°
2026-04-30 14:22 -5.91838 112.91434 35947 ft 508 kts 307°
2026-04-30 14:22 -5.85363 112.83019 35948 ft 507 kts 307°
2026-04-30 14:23 -5.76731 112.71806 35948 ft 507 kts 307°
2026-04-30 14:24 -5.70251 112.63394 35948 ft 507 kts 307°
2026-04-30 14:25 -5.61633 112.52211 35950 ft 508 kts 308°
2026-04-30 14:26 -5.55142 112.43792 35949 ft 508 kts 308°
2026-04-30 14:27 -5.48658 112.35385 35949 ft 507 kts 308°
2026-04-30 14:27 -5.44338 112.29788 35950 ft 507 kts 308°
2026-04-30 14:28 -5.37850 112.21381 35950 ft 507 kts 308°
2026-04-30 14:28 -5.33553 112.15816 35950 ft 508 kts 308°
2026-04-30 14:29 -5.24887 112.04595 35951 ft 509 kts 308°
2026-04-30 14:31 -5.14057 111.90583 35952 ft 509 kts 308°
2026-04-30 14:31 -5.07533 111.82144 35951 ft 510 kts 308°
2026-04-30 14:32 -5.01011 111.73713 35954 ft 510 kts 308°
2026-04-30 14:33 -4.96669 111.68101 35955 ft 509 kts 308°
2026-04-30 14:33 -4.90152 111.59681 35955 ft 509 kts 308°
2026-04-30 14:34 -4.85807 111.54069 35956 ft 509 kts 308°
2026-04-30 14:34 -4.81491 111.48495 35956 ft 508 kts 308°
2026-04-30 14:35 -4.74973 111.40080 35954 ft 509 kts 308°
2026-04-30 14:36 -4.70628 111.34473 35958 ft 509 kts 308°
2026-04-30 14:36 -4.66315 111.28908 35960 ft 508 kts 308°
2026-04-30 14:37 -4.61969 111.23302 35958 ft 508 kts 308°
2026-04-30 14:37 -4.57635 111.17696 35958 ft 508 kts 308°
2026-04-30 14:38 -4.53311 111.12072 35958 ft 508 kts 308°
2026-04-30 14:38 -4.49012 111.06484 35958 ft 509 kts 308°
2026-04-30 14:39 -4.44684 111.00864 35961 ft 509 kts 308°
2026-04-30 14:39 -4.40356 110.95250 35960 ft 509 kts 308°
2026-04-30 14:40 -4.33888 110.86860 35959 ft 509 kts 308°
2026-04-30 14:40 -4.29555 110.81242 35958 ft 509 kts 308°
2026-04-30 14:41 -4.25218 110.75619 35958 ft 509 kts 308°
2026-04-30 14:41 -4.20880 110.69996 35958 ft 509 kts 308°
2026-04-30 14:42 -4.16567 110.64406 35958 ft 510 kts 308°
2026-04-30 14:42 -4.12225 110.58780 35958 ft 510 kts 308°
2026-04-30 14:43 -4.07877 110.53149 35956 ft 510 kts 308°
2026-04-30 14:43 -4.03530 110.47519 35956 ft 511 kts 308°
2026-04-30 14:44 -3.99201 110.41913 35952 ft 511 kts 308°
2026-04-30 14:44 -3.94801 110.36258 35956 ft 511 kts 310°
2026-04-30 14:45 -3.90208 110.30877 35954 ft 511 kts 312°
2026-04-30 14:45 -3.85505 110.25526 35955 ft 511 kts 312°
2026-04-30 14:46 -3.80832 110.20146 35956 ft 511 kts 311°
2026-04-30 14:46 -3.76192 110.14751 35953 ft 511 kts 311°
2026-04-30 14:47 -3.71559 110.09350 35953 ft 511 kts 311°
2026-04-30 14:47 -3.66949 110.03977 35956 ft 511 kts 311°
2026-04-30 14:48 -3.62309 109.98573 35957 ft 511 kts 311°
2026-04-30 14:48 -3.57659 109.93159 35954 ft 512 kts 311°
2026-04-30 14:49 -3.53018 109.87758 35953 ft 512 kts 311°
2026-04-30 14:49 -3.48373 109.82352 35953 ft 512 kts 311°
2026-04-30 14:50 -3.41444 109.74290 35954 ft 511 kts 311°
2026-04-30 14:51 -3.34477 109.66184 35955 ft 511 kts 311°
2026-04-30 14:52 -3.27517 109.58090 35950 ft 511 kts 311°
2026-04-30 14:52 -3.20577 109.50020 35953 ft 511 kts 312°
2026-04-30 14:53 -3.13615 109.41927 35952 ft 511 kts 312°
2026-04-30 14:54 -3.04370 109.31183 35953 ft 511 kts 312°
2026-04-30 14:55 -2.97410 109.23096 35953 ft 511 kts 312°
2026-04-30 14:56 -2.88164 109.12358 35950 ft 511 kts 312°
2026-04-30 14:57 -2.81190 109.04290 35948 ft 511 kts 312°
2026-04-30 14:58 -2.71878 108.93524 35948 ft 511 kts 312°
2026-04-30 14:58 -2.65676 108.86353 35947 ft 512 kts 312°
2026-04-30 15:00 -2.56211 108.75411 35947 ft 512 kts 312°
2026-04-30 15:01 -2.46871 108.64621 35950 ft 512 kts 312°
2026-04-30 15:01 -2.39883 108.56514 35949 ft 512 kts 312°
2026-04-30 15:02 -2.35261 108.51146 35947 ft 512 kts 312°
2026-04-30 15:03 -2.23639 108.37668 35944 ft 513 kts 312°
2026-04-30 15:04 -2.11979 108.24153 35944 ft 513 kts 312°
2026-04-30 15:06 -2.01093 108.11544 35944 ft 514 kts 312°
2026-04-30 15:07 -1.91743 108.00692 35941 ft 515 kts 312°
2026-04-30 15:08 -1.82402 107.89860 35938 ft 515 kts 312°
2026-04-30 15:09 -1.70713 107.76311 35935 ft 515 kts 312°
2026-04-30 15:10 -1.61341 107.65448 35936 ft 516 kts 312°
2026-04-30 15:11 -1.47300 107.49179 35936 ft 516 kts 312°
2026-04-30 15:13 -1.35581 107.35607 35936 ft 517 kts 313°
2026-04-30 15:14 -1.18857 107.16776 35935 ft 517 kts 313°
2026-04-30 15:17 -0.97514 106.92709 35933 ft 516 kts 313°
2026-04-30 15:19 -0.78471 106.71241 35932 ft 515 kts 313°